CW8045 Weather Reports


time (UTC)temp
C
wind
direction
speed
KPH
gust
KPH
rain 1hr
cm
rain 24hr
cm
rain mn
cm
humidity
%
barometer
mb
20260507113603 14 195 0.0 3.2 0.00 0.00 0.00 73 1015.0
20260507112703 14 184 0.0 3.2 0.00 0.00 0.00 72 1015.0
20260507111802 14 270 3.2 8.0 0.00 0.00 0.00 72 1015.0
20260507110924 14 301 3.2 11.3 0.00 0.00 0.00 74 1015.0
20260507110004 14 347 3.2 8.0 0.00 0.00 0.00 77 1015.0
20260507105404 14 63 3.2 6.4 0.00 0.00 0.00 77 1015.1
20260507104502 13 104 1.6 3.2 0.00 0.00 0.00 77 1015.0
20260507103602 13 180 1.6 6.4 0.00 0.00 0.00 81 1015.0
20260507102724 13 175 3.2 6.4 0.00 0.00 0.00 85 1015.1
20260507101802 12 305 1.6 6.4 0.00 0.00 0.00 87 1015.2
20260507100902 12 290 1.6 6.4 0.00 0.00 0.00 87 1015.3
20260507100002 12 309 1.6 6.4 0.00 0.00 0.00 89 1015.3
20260507095402 11 324 0.0 6.4 0.00 0.00 0.00 90 1015.3
20260507094502 11 298 1.6 6.4 0.00 0.00 0.00 90 1015.3
20260507093602 11 298 1.6 6.4 0.00 0.00 0.00 92 1015.2
20260507092703 11 305 1.6 6.4 0.00 0.00 0.00 93 1015.1
20260507091823 10 300 1.6 6.4 0.00 0.00 0.00 93 1015.1
20260507090902 10 0 0.0 0.0 0.00 0.00 0.00 93 1015.1
20260507090002 10 303 0.0 3.2 0.00 0.00 0.00 93 1015.0
20260507085403 10 305 1.6 3.2 0.00 0.00 0.00 93 1015.0
20260507084503 10 316 0.0 3.2 0.00 0.00 0.00 93 1014.9
20260507083602 10 317 0.0 3.2 0.00 0.00 0.00 94 1014.9
20260507082702 10 0 0.0 0.0 0.00 0.00 0.00 94 1014.9
20260507081824 10 0 0.0 0.0 0.00 0.00 0.00 94 1014.8
20260507080903 10 0 0.0 0.0 0.00 0.00 0.00 95 1014.7
20260507080003 9 0 0.0 0.0 0.00 0.00 0.00 95 1014.5
20260507075402 9 0 0.0 0.0 0.00 0.00 0.00 95 1014.4
20260507074503 9 0 0.0 0.0 0.00 0.00 0.00 95 1014.7
20260507073603 8 0 0.0 0.0 0.00 0.00 0.00 95 1014.6
20260507072702 8 0 0.0 0.0 0.00 0.00 0.00 95 1014.5
20260507071803 8 0 0.0 0.0 0.00 0.00 0.00 95 1014.5
20260507070904 8 0 0.0 0.0 0.00 0.00 0.00 95 1014.4
20260507070004 8 0 0.0 0.0 0.00 0.00 0.00 95 1014.4
20260507065403 8 0 0.0 0.0 0.00 0.00 0.00 95 1014.3
20260507064503 8 0 0.0 0.0 0.00 0.00 0.00 95 1014.2
20260507063624 8 0 0.0 0.0 0.00 0.00 0.00 95 1014.3
20260507062702 8 0 0.0 0.0 0.00 0.00 0.00 95 1014.1
20260507061824 8 0 0.0 0.0 0.00 0.00 0.00 95 1014.1
20260507060903 7 0 0.0 0.0 0.00 0.00 0.00 95 1014.2
20260507060002 7 0 0.0 0.0 0.00 0.00 0.00 95 1014.2
20260507055403 7 0 0.0 0.0 0.00 0.00 0.00 95 1014.1
20260507054503 7 343 1.6 3.2 0.00 0.00 0.00 95 1014.1
20260507053625 7 343 0.0 3.2 0.00 0.00 0.00 95 1014.0
20260507052703 7 344 1.6 3.2 0.00 0.00 0.00 95 1013.9
20260507051803 7 348 0.0 3.2 0.00 0.00 0.00 95 1013.8
20260507050925 7 349 0.0 3.2 0.00 0.00 0.00 95 1013.6
20260507050003 7 346 1.6 3.2 0.00 0.00 0.00 95 1013.6
20260507045403 7 343 1.6 3.2 0.00 0.00 0.00 95 1013.5
20260507044524 6 336 1.6 3.2 0.00 0.00 0.00 95 1013.5
20260507043604 6 336 0.0 6.4 0.00 0.00 0.00 95 1013.4
20260507042703 6 312 1.6 6.4 0.00 0.00 0.00 95 1013.2
20260507041803 6 288 1.6 6.4 0.00 0.00 0.00 94 1013.3
20260507040903 6 274 3.2 6.4 0.00 0.00 0.00 94 1013.3
20260507040003 6 298 1.6 6.4 0.00 0.00 0.00 95 1013.2
20260507035403 6 303 1.6 6.4 0.00 0.00 0.00 95 1013.2
20260507034524 6 301 3.2 6.4 0.00 0.00 0.00 95 1013.2
20260507033603 6 295 3.2 6.4 0.00 0.00 0.00 95 1013.1
20260507032703 6 284 1.6 6.4 0.00 0.00 0.00 95 1013.0
20260507031804 6 274 1.6 3.2 0.00 0.00 0.00 95 1013.1
20260507030903 6 0 0.0 0.0 0.00 0.00 0.00 94 1013.1
20260507030003 5 0 0.0 0.0 0.00 0.00 0.00 94 1013.1
20260507025403 5 0 0.0 0.0 0.00 0.00 0.00 93 1013.1
20260507024503 5 0 0.0 0.0 0.00 0.00 0.00 93 1013.0
20260507023603 5 0 0.0 0.0 0.00 0.00 0.00 93 1012.9
20260507022704 5 0 0.0 0.0 0.00 0.00 0.00 93 1013.0
20260507021825 5 0 0.0 0.0 0.00 0.00 0.00 93 1012.9
20260507020903 5 275 0.0 1.6 0.00 0.00 0.00 93 1012.9
20260507020003 6 0 0.0 0.0 0.00 0.00 0.00 92 1012.9
20260507015424 6 275 0.0 3.2 0.00 0.00 0.00 93 1012.9
20260507014503 6 274 1.6 3.2 0.00 0.00 0.00 93 1012.9
20260507013603 6 273 3.2 6.4 0.00 0.00 0.00 93 1012.8
20260507012703 6 272 3.2 6.4 0.00 0.00 0.00 93 1012.8
20260507011803 6 272 1.6 3.2 0.00 0.00 0.00 93 1012.9
20260507010903 6 271 1.6 3.2 0.00 0.00 0.00 93 1012.8
20260507010024 6 277 3.2 6.4 0.00 0.00 0.00 93 1012.8
20260507005403 6 290 1.6 6.4 0.00 0.00 0.00 92 1012.8
20260507004503 6 0 0.0 0.0 0.00 0.00 0.00 92 1012.8
20260507003603 6 0 0.0 0.0 0.00 0.00 0.00 92 1012.8
20260507002703 6 301 0.0 1.6 0.00 0.00 0.00 92 1012.8
20260507001803 6 0 0.0 0.0 0.00 0.00 0.00 92 1012.9
20260507000924 6 0 0.0 3.2 0.00 0.00 0.00 92 1012.9
20260507000003 6 302 0.0 3.2 0.00 0.00 0.00 91 1012.9
20260506235403 6 302 0.0 3.2 0.00 0.00 0.00 91 1012.9
20260506234524 6 302 0.0 3.2 0.00 0.00 0.00 91 1012.8
20260506233603 6 302 0.0 3.2 0.00 0.00 0.00 90 1012.9
20260506232724 6 0 0.0 0.0 0.00 0.00 0.00 90 1012.9
20260506231825 6 0 0.0 0.0 0.00 0.00 0.00 89 1012.9
20260506230903 7 302 0.0 3.2 0.00 0.00 0.00 90 1012.8
20260506230003 7 303 1.6 3.2 0.00 0.00 0.00 90 1012.8
20260506225404 7 303 1.6 3.2 0.00 0.00 0.00 90 1012.7
20260506224503 7 301 1.6 6.4 0.00 0.00 0.00 89 1012.7
20260506223604 7 312 1.6 3.2 0.00 0.00 0.00 89 1012.6
20260506222703 7 304 1.6 6.4 0.00 0.00 0.00 89 1012.6
20260506221803 7 296 1.6 3.2 0.00 0.00 0.00 88 1012.6
20260506220903 7 306 1.6 3.2 0.00 0.00 0.00 88 1012.5
20260506220004 7 296 3.2 8.0 0.00 0.00 0.00 88 1012.5
20260506215403 7 299 1.6 6.4 0.00 0.00 0.00 88 1012.5
20260506214503 7 294 1.6 6.4 0.00 0.00 0.00 88 1012.4
20260506213603 8 300 1.6 6.4 0.00 0.00 0.00 87 1012.4
20260506212703 8 295 3.2 8.0 0.00 0.00 0.00 87 1012.3
20260506211803 8 312 1.6 6.4 0.00 0.00 0.00 86 1012.3
20260506210903 8 324 3.2 8.0 0.00 0.00 0.00 86 1012.3
20260506210003 8 322 3.2 9.7 0.00 0.00 0.00 86 1012.3
20260506205403 8 326 3.2 9.7 0.00 0.00 0.00 85 1012.3
20260506204524 8 332 3.2 9.7 0.00 0.00 0.00 84 1012.2
20260506203603 9 329 1.6 11.3 0.00 0.00 0.00 84 1012.2
20260506202724 9 341 1.6 9.7 0.00 0.00 0.00 84 1012.2
20260506201824 9 351 3.2 9.7 0.00 0.00 0.00 83 1012.0
20260506200903 10 360 1.6 8.0 0.00 0.00 0.00 82 1012.0
20260506200003 10 347 1.6 6.4 0.00 0.00 0.00 81 1011.9
20260506195403 10 354 1.6 6.4 0.00 0.00 0.00 81 1011.8
20260506194503 10 355 1.6 11.3 0.00 0.00 0.00 81 1011.7
20260506193624 10 357 1.6 9.7 0.00 0.00 0.00 80 1011.5
20260506192705 11 332 1.6 12.9 0.00 0.00 0.00 79 1011.3
20260506191803 11 329 3.2 14.5 0.00 0.00 0.00 77 1011.2
20260506190904 11 334 6.4 12.9 0.00 0.00 0.00 76 1011.1
20260506190025 12 335 4.8 14.5 0.00 0.00 0.00 74 1011.0
20260506185403 12 335 4.8 12.9 0.00 0.00 0.00 74 1011.0
20260506184524 12 356 4.8 19.3 0.00 0.00 0.00 73 1010.9
20260506183603 13 353 8.0 19.3 0.00 0.00 0.00 71 1011.0
20260506182703 13 349 6.4 17.7 0.00 0.00 0.00 72 1010.9
20260506181804 13 342 4.8 14.5 0.00 0.00 0.00 70 1010.9
20260506180904 13 321 8.0 17.7 0.00 0.00 0.00 71 1010.7
20260506180004 13 327 6.4 17.7 0.00 0.00 0.00 72 1010.6
20260506175403 13 327 6.4 17.7 0.00 0.00 0.00 73 1010.6
20260506174503 13 341 6.4 16.1 0.00 0.00 0.00 73 1010.5
20260506173603 13 338 8.0 17.7 0.00 0.00 0.00 71 1010.4
20260506172703 13 353 6.4 14.5 0.00 0.00 0.00 72 1010.3
20260506171801 13 348 6.4 17.7 0.00 0.00 0.00 72 1010.1
20260506170903 13 335 8.0 19.3 0.00 0.00 0.00 72 1010.0
20260506170002 13 329 9.7 17.7 0.00 0.00 0.00 69 1009.9
20260506165401 14 338 8.0 17.7 0.00 0.00 0.00 67 1009.9
20260506164523 14 347 6.4 16.1 0.00 0.00 0.00 66 1009.9
20260506163602 14 353 8.0 22.5 0.00 0.00 0.00 66 1009.9
20260506162701 14 323 9.7 22.5 0.00 0.00 0.00 66 1009.8
20260506161822 14 320 11.3 24.1 0.00 0.00 0.00 65 1009.9
20260506160901 15 325 8.0 20.9 0.00 0.00 0.00 64 1009.8
20260506160023 15 342 8.0 17.7 0.00 0.00 0.00 64 1009.8
20260506155402 15 348 8.0 14.5 0.00 0.00 0.00 64 1009.9
20260506154502 15 337 8.0 20.9 0.00 0.00 0.00 65 1009.7
20260506153603 15 344 8.0 22.5 0.00 0.00 0.00 65 1009.8
20260506152723 15 4 9.7 22.5 0.00 0.00 0.00 64 1009.8
20260506151802 15 349 9.7 20.9 0.00 0.00 0.00 64 1009.9
20260506150902 15 346 9.7 29.0 0.00 0.00 0.00 64 1009.8
20260506150023 15 348 9.7 22.5 0.00 0.00 0.00 66 1009.9
20260506145402 15 349 9.7 22.5 0.00 0.00 0.00 67 1010.0
20260506144523 14 352 8.0 20.9 0.00 0.00 0.00 68 1009.8
20260506143602 14 353 11.3 24.1 0.00 0.00 0.00 66 1009.8
20260506142702 15 346 11.3 29.0 0.00 0.00 0.00 66 1009.7
20260506141802 15 356 9.7 20.9 0.00 0.00 0.00 64 1009.6
20260506140903 14 352 9.7 20.9 0.00 0.00 0.00 68 1009.6
20260506140002 14 359 9.7 22.5 0.00 0.00 0.00 66 1009.7
20260506135402 14 350 8.0 22.5 0.00 0.00 0.00 66 1009.7
20260506134502 13 2 11.3 24.1 0.00 0.00 0.00 69 1009.6
20260506133602 13 3 9.7 24.1 0.00 0.00 0.00 68 1009.6
20260506132702 13 358 11.3 24.1 0.00 0.00 0.00 68 1009.6
20260506131803 13 351 9.7 19.3 0.00 0.00 0.00 69 1009.5
20260506130923 13 332 8.0 20.9 0.00 0.00 0.00 68 1009.5
20260506130002 14 353 6.4 17.7 0.00 0.00 0.00 68 1009.5
20260506125402 13 349 4.8 14.5 0.00 0.00 0.00 68 1009.5
20260506124502 13 4 9.7 20.9 0.00 0.00 0.00 68 1009.3
20260506123603 13 1 11.3 20.9 0.00 0.00 0.00 67 1009.3
20260506122702 13 354 8.0 22.5 0.00 0.00 0.00 68 1009.2
20260506121802 13 324 9.7 22.5 0.00 0.00 0.00 69 1009.3
20260506120903 14 329 8.0 20.9 0.00 0.00 0.00 69 1009.2
20260506120024 14 352 9.7 20.9 0.00 0.00 0.00 70 1009.3
20260506115402 13 1 8.0 17.7 0.00 0.00 0.00 71 1009.2
20260506114502 13 2 9.7 19.3 0.00 0.00 0.00 69 1009.3